When you browse on this site, cookies collect data to enhance your experience and personalize the content and advertising you see.
Visit our Privacy Policy to learn more. By continuing to use the site, you agree to this use of cookies and data.
  • In Latvia
  • List of Countries
  • For 7 days
  • Water Temperature
  • Satellite Maps
  • Weather Map
  • Weather Widgets
  • user-avatar
    Login

    Hourly Weather Aleksandrovka

    Today, 17 June, Monday

    Time Temperature Precipitation Wind Pressure Humidity
    00:00 +14°C° 0 mm 3 mps 749 mmHg 86%
    01:00 +14°C° 0 mm 3 mps 750 mmHg 87%
    02:00 +13°C° 0 mm 3 mps 750 mmHg 87%
    03:00 +14°C° 0 mm 2 mps 750 mmHg 86%
    04:00 +14°C° 0 mm 3 mps 750 mmHg 83%
    05:00 +16°C° 0 mm 3 mps 750 mmHg 79%
    06:00 +16°C° 0 mm 3 mps 751 mmHg 75%
    07:00 +18°C° 0 mm 3 mps 751 mmHg 71%
    08:00 +19°C° 0 mm 3 mps 751 mmHg 66%
    09:00 +21°C° 0 mm 3 mps 751 mmHg 61%
    10:00 +21°C° 0 mm 2 mps 751 mmHg 58%
    11:00 +23°C° 0 mm 2 mps 751 mmHg 55%
    12:00 +24°C° 0 mm 2 mps 751 mmHg 52%
    13:00 +24°C° 0 mm 2 mps 751 mmHg 51%
    14:00 +24°C° 0 mm 2 mps 751 mmHg 51%
    15:00 +25°C° 0 mm 1 mps 751 mmHg 47%
    16:00 +25°C° 0 mm 1 mps 751 mmHg 50%
    17:00 +25°C° 0 mm 1 mps 751 mmHg 52%
    18:00 +25°C° 0 mm 1 mps 751 mmHg 55%
    19:00 +23°C° 0 mm 1 mps 751 mmHg 58%
    20:00 +21°C° 0 mm 1 mps 751 mmHg 61%
    21:00 +20°C° 0 mm 1 mps 751 mmHg 65%
    22:00 +19°C° 0 mm 1 mps 751 mmHg 66%
    23:00 +18°C° 0 mm 2 mps 751 mmHg 68%

    Tomorrow, 18 June, Tuesday

    Time Temperature Precipitation Wind Pressure Humidity
    00:00 +17°C° 0 mm 2 mps 751 mmHg 69%
    01:00 +17°C° 0 mm 2 mps 751 mmHg 72%
    02:00 +16°C° 0 mm 2 mps 751 mmHg 75%
    03:00 +16°C° 0 mm 1 mps 752 mmHg 78%
    04:00 +18°C° 0 mm 1 mps 752 mmHg 76%
    05:00 +18°C° 0 mm 1 mps 752 mmHg 74%
    06:00 +19°C° 0 mm 1 mps 752 mmHg 73%
    07:00 +21°C° 0 mm 1 mps 752 mmHg 68%
    08:00 +22°C° 0 mm 1 mps 752 mmHg 64%
    09:00 +23°C° 0 mm 1 mps 752 mmHg 60%
    10:00 +24°C° 0 mm 1 mps 752 mmHg 57%
    11:00 +25°C° 0 mm 2 mps 751 mmHg 55%
    12:00 +25°C° 0 mm 2 mps 751 mmHg 53%
    13:00 +25°C° 0 mm 2 mps 751 mmHg 53%
    14:00 +26°C° 0 mm 2 mps 751 mmHg 53%
    15:00 +26°C° 0 mm 2 mps 751 mmHg 53%
    16:00 +26°C° 0 mm 2 mps 750 mmHg 56%
    17:00 +26°C° 0 mm 2 mps 750 mmHg 59%
    18:00 +25°C° 0 mm 2 mps 750 mmHg 61%
    19:00 +24°C° 0 mm 2 mps 750 mmHg 66%
    20:00 +21°C° 0 mm 2 mps 750 mmHg 70%
    21:00 +20°C° 0 mm 2 mps 750 mmHg 74%
    22:00 +20°C° 0 mm 2 mps 750 mmHg 76%
    23:00 +19°C° 0 mm 2 mps 750 mmHg 78%

    Day after tomorrow, 19 June, Wednesday

    Time Temperature Precipitation Wind Pressure Humidity
    00:00 +19°C° 0 mm 2 mps 750 mmHg 79%
    01:00 +18°C° 0 mm 2 mps 750 mmHg 80%
    02:00 +18°C° 0 mm 2 mps 750 mmHg 80%
    03:00 +18°C° 0 mm 2 mps 750 mmHg 80%
    04:00 +19°C° 0 mm 2 mps 750 mmHg 79%
    05:00 +19°C° 0 mm 2 mps 750 mmHg 78%
    06:00 +20°C° 0 mm 2 mps 750 mmHg 76%
    07:00 +21°C° 0.5 mm 2 mps 750 mmHg 74%
    08:00 +23°C° 0.5 mm 2 mps 750 mmHg 72%
    09:00 +24°C° 0.5 mm 2 mps 749 mmHg 70%
    10:00 +25°C° 0.7 mm 2 mps 750 mmHg 66%
    11:00 +26°C° 0.7 mm 2 mps 750 mmHg 63%
    12:00 +27°C° 0.7 mm 3 mps 750 mmHg 60%
    13:00 +27°C° 0.1 mm 3 mps 750 mmHg 58%
    14:00 +27°C° 0.1 mm 3 mps 749 mmHg 57%
    15:00 +28°C° 0.1 mm 3 mps 749 mmHg 55%
    16:00 +27°C° 0 mm 4 mps 749 mmHg 58%
    17:00 +26°C° 0 mm 4 mps 749 mmHg 61%
    18:00 +26°C° 0 mm 5 mps 750 mmHg 64%
    19:00 +23°C° 0 mm 4 mps 750 mmHg 70%
    20:00 +22°C° 0 mm 4 mps 750 mmHg 76%
    21:00 +20°C° 0 mm 3 mps 750 mmHg 82%
    22:00 +19°C° 0 mm 3 mps 750 mmHg 84%
    23:00 +19°C° 0 mm 3 mps 751 mmHg 86%

    20 June, Thursday

    Time Temperature Precipitation Wind Pressure Humidity
    00:00 +18°C° 0 mm 3 mps 751 mmHg 88%
    01:00 +18°C° 0 mm 3 mps 751 mmHg 89%
    02:00 +17°C° 0 mm 3 mps 751 mmHg 90%
    03:00 +17°C° 0 mm 3 mps 751 mmHg 91%
    04:00 +18°C° 0 mm 3 mps 751 mmHg 88%
    05:00 +18°C° 0 mm 3 mps 752 mmHg 84%
    06:00 +19°C° 0 mm 3 mps 752 mmHg 81%
    07:00 +21°C° 0 mm 3 mps 752 mmHg 75%
    08:00 +22°C° 0 mm 3 mps 752 mmHg 69%
    09:00 +25°C° 0 mm 4 mps 752 mmHg 64%
    10:00 +25°C° 0 mm 4 mps 752 mmHg 60%
    11:00 +26°C° 0 mm 4 mps 753 mmHg 57%
    12:00 +27°C° 0 mm 4 mps 753 mmHg 54%
    13:00 +28°C° 0 mm 4 mps 753 mmHg 52%
    14:00 +28°C° 0 mm 4 mps 753 mmHg 51%
    15:00 +28°C° 0 mm 4 mps 753 mmHg 50%
    16:00 +28°C° 0 mm 3 mps 753 mmHg 53%
    17:00 +27°C° 0 mm 3 mps 753 mmHg 56%
    18:00 +27°C° 0 mm 3 mps 753 mmHg 59%
    19:00 +26°C° 0 mm 2 mps 753 mmHg 62%
    20:00 +24°C° 0 mm 2 mps 753 mmHg 65%
    21:00 +23°C° 0 mm 2 mps 753 mmHg 69%
    22:00 +21°C° 0 mm 2 mps 753 mmHg 71%
    23:00 +20°C° 0 mm 2 mps 754 mmHg 74%

    21 June, Friday

    Time Temperature Precipitation Wind Pressure Humidity
    00:00 +20°C° 0 mm 2 mps 754 mmHg 76%
    01:00 +19°C° 0 mm 2 mps 754 mmHg 78%
    02:00 +19°C° 0 mm 2 mps 754 mmHg 80%
    03:00 +19°C° 0 mm 2 mps 754 mmHg 82%
    04:00 +19°C° 0 mm 2 mps 755 mmHg 80%
    05:00 +20°C° 0 mm 2 mps 755 mmHg 78%
    06:00 +21°C° 0 mm 2 mps 755 mmHg 77%
    07:00 +23°C° 0 mm 2 mps 755 mmHg 71%
    08:00 +24°C° 0 mm 3 mps 755 mmHg 66%
    09:00 +26°C° 0 mm 3 mps 755 mmHg 61%
    10:00 +26°C° 0 mm 3 mps 755 mmHg 57%
    11:00 +27°C° 0 mm 3 mps 755 mmHg 53%
    12:00 +28°C° 0 mm 3 mps 755 mmHg 49%
    13:00 +28°C° 0 mm 3 mps 755 mmHg 47%
    14:00 +29°C° 0 mm 3 mps 755 mmHg 46%
    15:00 +29°C° 0 mm 3 mps 755 mmHg 44%
    16:00 +29°C° 0 mm 3 mps 755 mmHg 47%
    17:00 +29°C° 0 mm 2 mps 755 mmHg 50%
    18:00 +28°C° 0 mm 2 mps 755 mmHg 53%
    19:00 +27°C° 0 mm 2 mps 755 mmHg 55%
    20:00 +25°C° 0 mm 2 mps 755 mmHg 57%
    21:00 +23°C° 0 mm 1 mps 755 mmHg 58%
    22:00 +23°C° 0 mm 1 mps 755 mmHg 61%
    23:00 +22°C° 0 mm 1 mps 755 mmHg 63%

    22 June, Saturday

    Time Temperature Precipitation Wind Pressure Humidity
    00:00 +22°C° 0 mm 1 mps 755 mmHg 65%
    01:00 +21°C° 0 mm 1 mps 755 mmHg 67%
    02:00 +21°C° 0 mm 1 mps 755 mmHg 68%
    03:00 +20°C° 0 mm 1 mps 756 mmHg 70%
    04:00 +21°C° 0 mm 1 mps 756 mmHg 69%
    05:00 +22°C° 0 mm 1 mps 756 mmHg 69%
    06:00 +22°C° 0 mm 1 mps 756 mmHg 69%
    07:00 +24°C° 0 mm 1 mps 756 mmHg 65%
    08:00 +25°C° 0 mm 1 mps 756 mmHg 61%
    09:00 +26°C° 0 mm 1 mps 756 mmHg 57%
    10:00 +27°C° 0 mm 1 mps 756 mmHg 53%
    11:00 +28°C° 0 mm 1 mps 756 mmHg 50%
    12:00 +29°C° 0 mm 1 mps 756 mmHg 46%
    13:00 +29°C° 0 mm 1 mps 756 mmHg 46%
    14:00 +29°C° 0 mm 1 mps 756 mmHg 46%
    15:00 +29°C° 0 mm 1 mps 756 mmHg 46%
    16:00 +29°C° 0 mm 1 mps 755 mmHg 49%
    17:00 +28°C° 0 mm 1 mps 755 mmHg 51%
    18:00 +28°C° 0 mm 1 mps 755 mmHg 54%
    19:00 +27°C° 0 mm 1 mps 755 mmHg 56%
    20:00 +25°C° 0 mm 1 mps 755 mmHg 57%
    21:00 +24°C° 0 mm 1 mps 756 mmHg 59%
    22:00 +21°C° 0 mm 0 mps 755 mmHg 60%
    23:00 +21°C° 0 mm 0 mps 755 mmHg 61%
    Show more